Retour au catalogue

STARLINK-31795

ActifCommunicationsVLEO
NORAD 59645·PAYLOAD·🇺🇸 United States

Lancé May 3, 2024 depuis Cape Canaveral Space Force Station

Loading…

Prochains Passages (prochaines 24 heures)

TLE

FraisSource: CelesTrak SupGP

Époque: Sep 14, 2026, 20:41 UTC

1 59645C 24082Q   26257.86229167 -.00009047  00000+0 -32779-3 0  2577
2 59645  43.0026  92.8955 0001405 271.0218  18.2466 15.27571571    14

Suivez STARLINK-31795 en temps réel avec AllMySat

Download on the App Store